LOT516 LUKK-EPWA

Flight info

Callsign LOT516
Flight time 1h 24m
Altitude 36000
Route NUNTA DCT KARIL DCT KENIN DCT LENOV DCT ORTEB DCT KONZI DCT LOGDA
Aircraft B738/M-SDFGHILORVWXYZ/LB1

Departure

Time 2026-05-04 19:07
Airport Chişinău International Airport (LUKK)

Arrival

Time 2026-05-04 20:31
Airport Warsaw Chopin Airport (EPWA)
Time Latitude Longitude Altitude Speed Heading
2026-05-04 18:52 46.93223 28.93734 380 ft 0 kts 99°
2026-05-04 18:58 46.93221 28.93750 407 ft 5 kts 99°
2026-05-04 18:58 46.93207 28.93799 404 ft 5 kts 144°
2026-05-04 18:58 46.93169 28.93803 407 ft 6 kts 188°
2026-05-04 18:59 46.93134 28.93778 407 ft 6 kts 220°
2026-05-04 18:59 46.93128 28.93707 407 ft 12 kts 279°
2026-05-04 18:59 46.93140 28.93562 409 ft 17 kts 277°
2026-05-04 18:59 46.93157 28.93358 409 ft 24 kts 277°
2026-05-04 19:00 46.93180 28.93098 409 ft 26 kts 277°
2026-05-04 19:00 46.93201 28.92839 407 ft 25 kts 277°
2026-05-04 19:00 46.93222 28.92598 405 ft 23 kts 277°
2026-05-04 19:00 46.93242 28.92370 403 ft 22 kts 277°
2026-05-04 19:01 46.93259 28.92147 406 ft 22 kts 276°
2026-05-04 19:01 46.93225 28.92030 406 ft 13 kts 194°
2026-05-04 19:01 46.93138 28.91997 407 ft 13 kts 193°
2026-05-04 19:01 46.93049 28.91987 407 ft 14 kts 178°
2026-05-04 19:02 46.92951 28.91992 407 ft 14 kts 178°
2026-05-04 19:02 46.92892 28.91995 407 ft 0 kts 178°
2026-05-04 19:03 46.92889 28.91995 407 ft 2 kts 178°
2026-05-04 19:03 46.92842 28.91998 407 ft 11 kts 177°
2026-05-04 19:03 46.92767 28.91977 408 ft 11 kts 220°
2026-05-04 19:04 46.92755 28.91843 406 ft 18 kts 269°
2026-05-04 19:04 46.92749 28.91608 407 ft 26 kts 268°
2026-05-04 19:04 46.92744 28.91340 406 ft 29 kts 269°
2026-05-04 19:04 46.92738 28.91032 408 ft 30 kts 268°
2026-05-04 19:05 46.92758 28.90842 406 ft 11 kts 304°
2026-05-04 19:05 46.92748 28.90757 407 ft 5 kts 196°
2026-05-04 19:05 46.92733 28.90789 407 ft 0 kts 88°
2026-05-04 19:06 46.92736 28.90947 404 ft 49 kts 88°
2026-05-04 19:06 46.92754 28.91836 406 ft 123 kts 89°
2026-05-04 19:06 46.92765 28.93381 523 ft 172 kts 91°
2026-05-04 19:07 46.92794 28.95073 1556 ft 156 kts 87°
2026-05-04 19:07 46.92836 28.96718 2277 ft 176 kts 86°
2026-05-04 19:07 46.92880 28.98651 2697 ft 201 kts 87°
2026-05-04 19:07 46.92922 29.00816 3088 ft 219 kts 85°
2026-05-04 19:08 46.93002 29.03082 3700 ft 232 kts 85°
2026-05-04 19:08 46.93206 29.05539 4181 ft 248 kts 69°
2026-05-04 19:08 46.94168 29.07628 5036 ft 251 kts 39°
2026-05-04 19:08 46.95737 29.08682 6096 ft 253 kts 12°
2026-05-04 19:09 46.97513 29.08494 6967 ft 265 kts 344°
2026-05-04 19:09 46.99092 29.07037 7832 ft 277 kts 319°
2026-05-04 19:09 47.00194 29.04720 8887 ft 284 kts 302°
2026-05-04 19:09 47.00987 29.02026 9753 ft 290 kts 298°
2026-05-04 19:10 47.01725 28.99278 10646 ft 291 kts 298°
2026-05-04 19:10 47.02466 28.96455 11192 ft 307 kts 297°
2026-05-04 19:10 47.03269 28.93403 11373 ft 333 kts 297°
2026-05-04 19:10 47.04153 28.90152 11692 ft 352 kts 297°
2026-05-04 19:11 47.05095 28.86786 12346 ft 360 kts 297°
2026-05-04 19:11 47.06066 28.83385 13125 ft 364 kts 297°
2026-05-04 19:11 47.06961 28.79876 13871 ft 372 kts 290°
2026-05-04 19:11 47.07549 28.76139 14545 ft 378 kts 286°
2026-05-04 19:12 47.08069 28.72344 15238 ft 382 kts 285°
2026-05-04 19:12 47.09098 28.64611 16651 ft 389 kts 285°
2026-05-04 19:12 47.09628 28.60696 17336 ft 393 kts 285°
2026-05-04 19:13 47.10163 28.56797 18008 ft 397 kts 285°
2026-05-04 19:13 47.10724 28.52754 18632 ft 401 kts 285°
2026-05-04 19:13 47.11276 28.48791 19221 ft 404 kts 284°
2026-05-04 19:13 47.11850 28.44684 19821 ft 406 kts 284°
2026-05-04 19:14 47.12413 28.40659 20420 ft 409 kts 284°
2026-05-04 19:14 47.12986 28.36554 21007 ft 412 kts 284°
2026-05-04 19:14 47.13570 28.32366 21584 ft 415 kts 284°
2026-05-04 19:14 47.14149 28.28199 22133 ft 418 kts 284°
2026-05-04 19:15 47.14722 28.24061 22694 ft 420 kts 284°
2026-05-04 19:15 47.15306 28.19837 23230 ft 423 kts 284°
2026-05-04 19:15 47.15892 28.15579 23724 ft 427 kts 284°
2026-05-04 19:15 47.16481 28.11296 24156 ft 429 kts 283°
2026-05-04 19:16 47.17071 28.06982 24606 ft 432 kts 284°
2026-05-04 19:16 47.17663 28.02648 25039 ft 434 kts 283°
2026-05-04 19:16 47.18258 27.98279 25457 ft 437 kts 283°
2026-05-04 19:16 47.18854 27.93883 25862 ft 440 kts 283°
2026-05-04 19:17 47.19452 27.89467 26263 ft 442 kts 283°
2026-05-04 19:17 47.20051 27.85024 26681 ft 444 kts 283°
2026-05-04 19:17 47.20651 27.80560 27079 ft 446 kts 283°
2026-05-04 19:17 47.21252 27.76073 27454 ft 449 kts 283°
2026-05-04 19:18 47.21856 27.71560 27817 ft 451 kts 283°
2026-05-04 19:18 47.22462 27.67010 28182 ft 454 kts 283°
2026-05-04 19:18 47.23067 27.62449 28539 ft 456 kts 283°
2026-05-04 19:18 47.23675 27.57854 28886 ft 458 kts 283°
2026-05-04 19:19 47.24285 27.53233 29223 ft 461 kts 283°
2026-05-04 19:19 47.24895 27.48594 29535 ft 463 kts 283°
2026-05-04 19:19 47.25506 27.43930 29892 ft 464 kts 283°
2026-05-04 19:19 47.26115 27.39267 30317 ft 463 kts 283°
2026-05-04 19:20 47.26717 27.34630 30769 ft 460 kts 283°
2026-05-04 19:20 47.27315 27.30014 31219 ft 457 kts 283°
2026-05-04 19:20 47.27908 27.25426 31615 ft 456 kts 283°
2026-05-04 19:20 47.28499 27.20842 31977 ft 455 kts 282°
2026-05-04 19:21 47.29087 27.16264 32355 ft 454 kts 282°
2026-05-04 19:21 47.29671 27.11709 32757 ft 452 kts 282°
2026-05-04 19:21 47.30250 27.07166 33147 ft 450 kts 282°
2026-05-04 19:21 47.30827 27.02636 33509 ft 450 kts 282°
2026-05-04 19:22 47.31400 26.98114 33852 ft 449 kts 282°
2026-05-04 19:22 47.31970 26.93599 34199 ft 447 kts 282°
2026-05-04 19:22 47.32538 26.89097 34488 ft 447 kts 282°
2026-05-04 19:22 47.33103 26.84594 34731 ft 447 kts 282°
2026-05-04 19:23 47.33660 26.80142 34975 ft 447 kts 282°
2026-05-04 19:23 47.34229 26.75576 35237 ft 447 kts 282°
2026-05-04 19:23 47.34789 26.71073 35481 ft 447 kts 282°
2026-05-04 19:23 47.35347 26.66565 35726 ft 447 kts 282°
2026-05-04 19:24 47.35895 26.62124 35966 ft 446 kts 282°
2026-05-04 19:24 47.37009 26.53057 36039 ft 451 kts 282°
2026-05-04 19:25 47.38117 26.43974 36030 ft 447 kts 282°
2026-05-04 19:25 47.39028 26.36444 36046 ft 444 kts 282°
2026-05-04 19:26 47.40106 26.27492 36052 ft 443 kts 282°
2026-05-04 19:26 47.41176 26.18549 36052 ft 442 kts 282°
2026-05-04 19:27 47.42233 26.09652 36073 ft 443 kts 282°
2026-05-04 19:27 47.43299 26.00621 36071 ft 444 kts 282°
2026-05-04 19:28 47.44348 25.91663 36063 ft 446 kts 282°
2026-05-04 19:28 47.45399 25.82628 36080 ft 447 kts 282°
2026-05-04 19:29 47.46451 25.73512 36076 ft 448 kts 282°
2026-05-04 19:29 47.47485 25.64490 36083 ft 448 kts 282°
2026-05-04 19:30 47.48526 25.55337 36090 ft 449 kts 281°
2026-05-04 19:30 47.49548 25.46288 36092 ft 449 kts 281°
2026-05-04 19:31 47.50571 25.37169 36085 ft 449 kts 281°
2026-05-04 19:31 47.51584 25.28061 36103 ft 449 kts 281°
2026-05-04 19:32 47.52589 25.18961 36096 ft 448 kts 281°
2026-05-04 19:32 47.53584 25.09880 36112 ft 447 kts 281°
2026-05-04 19:33 47.54570 25.00816 36117 ft 446 kts 281°
2026-05-04 19:33 47.55548 24.91755 36106 ft 446 kts 281°
2026-05-04 19:34 47.56518 24.82700 36107 ft 445 kts 281°
2026-05-04 19:34 47.57478 24.73660 36109 ft 444 kts 281°
2026-05-04 19:35 47.58432 24.64617 36103 ft 444 kts 281°
2026-05-04 19:35 47.59379 24.55574 36100 ft 444 kts 281°
2026-05-04 19:36 47.60318 24.46531 36117 ft 444 kts 281°
2026-05-04 19:36 47.61249 24.37493 36094 ft 444 kts 281°
2026-05-04 19:37 47.62174 24.28445 36117 ft 444 kts 281°
2026-05-04 19:37 47.63092 24.19387 36103 ft 444 kts 281°
2026-05-04 19:38 47.64002 24.10332 36097 ft 444 kts 280°
2026-05-04 19:38 47.64906 24.01266 36103 ft 444 kts 280°
2026-05-04 19:39 47.65803 23.92202 36102 ft 444 kts 280°
2026-05-04 19:39 47.66685 23.83203 36085 ft 444 kts 280°
2026-05-04 19:40 47.67567 23.74140 36073 ft 444 kts 280°
2026-05-04 19:40 47.68440 23.65087 36075 ft 443 kts 280°
2026-05-04 19:41 47.69305 23.56040 36071 ft 443 kts 280°
2026-05-04 19:41 47.70163 23.46991 36078 ft 443 kts 280°
2026-05-04 19:42 47.71013 23.37941 36082 ft 443 kts 280°
2026-05-04 19:42 47.71857 23.28888 36068 ft 443 kts 280°
2026-05-04 19:43 47.72694 23.19827 36078 ft 442 kts 280°
2026-05-04 19:43 47.73522 23.10778 36074 ft 443 kts 280°
2026-05-04 19:44 47.74344 23.01715 36074 ft 442 kts 280°
2026-05-04 19:44 47.75159 22.92652 36077 ft 442 kts 280°
2026-05-04 19:45 47.75966 22.83593 36073 ft 442 kts 280°
2026-05-04 19:45 47.76766 22.74537 36075 ft 442 kts 280°
2026-05-04 19:46 47.77559 22.65473 36074 ft 442 kts 280°
2026-05-04 19:46 47.78345 22.56410 36072 ft 442 kts 280°
2026-05-04 19:47 47.79453 22.47487 36040 ft 436 kts 297°
2026-05-04 19:47 47.81025 22.43693 36075 ft 429 kts 312°
2026-05-04 19:47 47.83178 22.40666 36064 ft 425 kts 327°
2026-05-04 19:48 47.88210 22.36051 36064 ft 425 kts 330°
2026-05-04 19:48 47.93316 22.31599 36059 ft 426 kts 330°
2026-05-04 19:49 47.98414 22.27083 36058 ft 426 kts 330°
2026-05-04 19:49 48.03500 22.22510 36057 ft 427 kts 330°
2026-05-04 19:50 48.08582 22.17906 36057 ft 427 kts 329°
2026-05-04 19:50 48.13667 22.13284 36057 ft 428 kts 329°
2026-05-04 19:51 48.18759 22.08646 36058 ft 428 kts 329°
2026-05-04 19:51 48.23852 22.03996 36056 ft 429 kts 329°
2026-05-04 19:52 48.28947 21.99335 36058 ft 429 kts 329°
2026-05-04 19:52 48.34042 21.94663 36040 ft 429 kts 329°
2026-05-04 19:53 48.39105 21.90009 36049 ft 429 kts 329°
2026-05-04 19:53 48.44202 21.85313 36050 ft 430 kts 329°
2026-05-04 19:54 48.49304 21.80613 36049 ft 430 kts 329°
2026-05-04 19:54 48.54403 21.75902 36050 ft 430 kts 329°
2026-05-04 19:55 48.59491 21.71182 36051 ft 430 kts 329°
2026-05-04 19:55 48.64594 21.66433 36050 ft 430 kts 329°
2026-05-04 19:56 48.69688 21.61682 36046 ft 430 kts 329°
2026-05-04 19:56 48.74786 21.56917 36044 ft 430 kts 329°
2026-05-04 19:57 48.79877 21.52145 36049 ft 430 kts 329°
2026-05-04 19:57 48.84971 21.47371 36044 ft 430 kts 330°
2026-05-04 19:58 48.90573 21.44243 36044 ft 432 kts 348°
2026-05-04 19:58 48.96476 21.42549 36039 ft 433 kts 349°
2026-05-04 19:59 49.02403 21.40848 36038 ft 433 kts 348°
2026-05-04 19:59 49.08324 21.39095 36038 ft 434 kts 348°
2026-05-04 20:00 49.14252 21.37309 36041 ft 434 kts 348°
2026-05-04 20:00 49.20188 21.35508 36032 ft 435 kts 348°
2026-05-04 20:01 49.26117 21.33704 36039 ft 435 kts 348°
2026-05-04 20:01 49.32054 21.31895 36029 ft 435 kts 348°
2026-05-04 20:02 49.37988 21.30082 36030 ft 435 kts 348°
2026-05-04 20:02 49.43927 21.28263 36025 ft 435 kts 348°
2026-05-04 20:03 49.49870 21.26439 36024 ft 435 kts 348°
2026-05-04 20:03 49.55814 21.24610 36009 ft 436 kts 348°
2026-05-04 20:04 49.61761 21.22775 36016 ft 436 kts 347°
2026-05-04 20:04 49.67709 21.20936 36001 ft 436 kts 347°
2026-05-04 20:05 49.73652 21.19093 35995 ft 436 kts 347°
2026-05-04 20:05 49.79558 21.17258 35996 ft 436 kts 347°
2026-05-04 20:06 49.85502 21.15406 36001 ft 436 kts 347°
2026-05-04 20:06 49.91451 21.13547 35991 ft 436 kts 347°
2026-05-04 20:07 49.97401 21.11684 35981 ft 436 kts 347°
2026-05-04 20:07 50.03356 21.09814 35980 ft 437 kts 347°
2026-05-04 20:08 50.09307 21.07941 35978 ft 437 kts 347°
2026-05-04 20:08 50.15263 21.06062 35987 ft 437 kts 347°
2026-05-04 20:09 50.21229 21.04174 35792 ft 440 kts 347°
2026-05-04 20:09 50.24251 21.03216 35253 ft 443 kts 347°
2026-05-04 20:09 50.27259 21.02261 34627 ft 442 kts 347°
2026-05-04 20:09 50.30271 21.01304 34010 ft 442 kts 347°
2026-05-04 20:10 50.33274 21.00348 33494 ft 438 kts 347°
2026-05-04 20:10 50.36240 20.99404 32996 ft 433 kts 347°
2026-05-04 20:10 50.39173 20.98469 32546 ft 428 kts 347°
2026-05-04 20:10 50.41141 20.97840 32234 ft 425 kts 347°
2026-05-04 20:11 50.43989 20.96930 31792 ft 421 kts 347°
2026-05-04 20:11 50.46843 20.96017 31349 ft 417 kts 347°
2026-05-04 20:11 50.49675 20.95109 30920 ft 413 kts 347°
2026-05-04 20:11 50.52479 20.94209 30491 ft 410 kts 347°
2026-05-04 20:12 50.55262 20.93315 30058 ft 407 kts 347°
2026-05-04 20:12 50.58022 20.92427 29570 ft 403 kts 347°
2026-05-04 20:12 50.60754 20.91547 29132 ft 398 kts 347°
2026-05-04 20:12 50.63454 20.90677 28692 ft 394 kts 347°
2026-05-04 20:13 50.66131 20.89814 28258 ft 390 kts 347°
2026-05-04 20:13 50.68777 20.88959 27823 ft 387 kts 347°
2026-05-04 20:13 50.71402 20.88109 27384 ft 383 kts 347°
2026-05-04 20:13 50.74006 20.87266 26964 ft 380 kts 346°
2026-05-04 20:14 50.76587 20.86428 26542 ft 377 kts 346°
2026-05-04 20:14 50.79153 20.85596 26134 ft 375 kts 347°
2026-05-04 20:14 50.81763 20.85167 25399 ft 384 kts 359°
2026-05-04 20:14 50.84464 20.85548 24336 ft 399 kts
2026-05-04 20:15 50.87284 20.86136 23080 ft 417 kts
2026-05-04 20:15 50.90210 20.86775 21736 ft 431 kts
2026-05-04 20:15 50.93219 20.87431 20581 ft 441 kts
2026-05-04 20:15 50.96261 20.88084 19749 ft 441 kts
2026-05-04 20:16 50.99292 20.88724 19093 ft 437 kts
2026-05-04 20:16 51.02289 20.89349 18446 ft 433 kts
2026-05-04 20:16 51.05271 20.89965 17701 ft 431 kts
2026-05-04 20:16 51.08193 20.90565 17035 ft 427 kts
2026-05-04 20:17 51.11119 20.91165 16414 ft 421 kts
2026-05-04 20:17 51.14045 20.91765 15804 ft 416 kts
2026-05-04 20:17 51.16907 20.92353 15181 ft 412 kts
2026-05-04 20:17 51.19740 20.92934 14571 ft 409 kts
2026-05-04 20:18 51.22547 20.93512 13981 ft 404 kts
2026-05-04 20:18 51.25254 20.94072 13171 ft 393 kts
2026-05-04 20:18 51.27993 20.94637 12072 ft 391 kts
2026-05-04 20:18 51.30649 20.95182 11488 ft 388 kts
2026-05-04 20:19 51.33315 20.95732 11049 ft 382 kts
2026-05-04 20:19 51.35895 20.96269 10898 ft 367 kts
2026-05-04 20:19 51.38386 20.96791 10709 ft 356 kts
2026-05-04 20:19 51.40834 20.97301 10450 ft 356 kts
2026-05-04 20:20 51.43306 20.97811 10222 ft 360 kts
2026-05-04 20:20 51.45798 20.98325 10034 ft 360 kts
2026-05-04 20:20 51.48287 20.98841 9984 ft 361 kts
2026-05-04 20:20 51.50777 20.99359 9820 ft 361 kts
2026-05-04 20:21 51.53256 20.99876 9467 ft 359 kts
2026-05-04 20:21 51.55716 21.00391 9013 ft 354 kts
2026-05-04 20:21 51.60561 21.01405 8065 ft 348 kts
2026-05-04 20:22 51.62955 21.01907 7594 ft 346 kts
2026-05-04 20:22 51.65337 21.02406 7122 ft 344 kts
2026-05-04 20:22 51.67707 21.02903 6648 ft 343 kts
2026-05-04 20:22 51.70065 21.03398 6149 ft 342 kts
2026-05-04 20:23 51.72388 21.03888 5969 ft 330 kts
2026-05-04 20:23 51.74631 21.04363 5813 ft 320 kts
2026-05-04 20:23 51.76800 21.04823 5655 ft 309 kts
2026-05-04 20:23 51.78898 21.05267 5519 ft 299 kts
2026-05-04 20:24 51.80933 21.05698 5390 ft 290 kts
2026-05-04 20:24 51.82902 21.06115 5260 ft 281 kts
2026-05-04 20:24 51.84814 21.06520 5156 ft 273 kts
2026-05-04 20:24 51.86674 21.06913 5040 ft 265 kts
2026-05-04 20:25 51.88475 21.07294 4933 ft 257 kts
2026-05-04 20:25 51.90223 21.07663 4826 ft 250 kts
2026-05-04 20:25 51.91919 21.08022 4707 ft 242 kts
2026-05-04 20:25 51.93571 21.08371 4502 ft 235 kts
2026-05-04 20:26 51.95170 21.08709 4254 ft 229 kts
2026-05-04 20:26 51.96729 21.09041 4020 ft 223 kts
2026-05-04 20:26 51.98247 21.09365 3795 ft 217 kts
2026-05-04 20:26 51.99715 21.09680 3600 ft 209 kts
2026-05-04 20:27 52.01131 21.09920 3397 ft 200 kts 353°
2026-05-04 20:27 52.02349 21.09199 3233 ft 181 kts 324°
2026-05-04 20:27 52.03444 21.08210 2985 ft 179 kts 328°
2026-05-04 20:27 52.04530 21.07276 2751 ft 175 kts 328°
2026-05-04 20:28 52.05588 21.06352 2533 ft 168 kts 328°
2026-05-04 20:28 52.06592 21.05472 2369 ft 163 kts 328°
2026-05-04 20:28 52.07601 21.04584 2115 ft 165 kts 328°
2026-05-04 20:28 52.08605 21.03704 1887 ft 164 kts 328°
2026-05-04 20:29 52.09579 21.02850 1682 ft 155 kts 328°
2026-05-04 20:29 52.10513 21.02034 1457 ft 152 kts 330°
2026-05-04 20:29 52.11442 21.01238 1251 ft 150 kts 329°
2026-05-04 20:29 52.12355 21.00420 1044 ft 149 kts 330°
2026-05-04 20:30 52.13262 20.99620 851 ft 148 kts 331°
2026-05-04 20:30 52.14181 20.98810 691 ft 151 kts 331°
2026-05-04 20:30 52.15115 20.97999 487 ft 152 kts 332°
2026-05-04 20:30 52.16036 20.97192 340 ft 143 kts 332°
2026-05-04 20:31 52.16729 20.96575 338 ft 83 kts 331°
2026-05-04 20:31 52.17058 20.96296 335 ft 33 kts 338°
2026-05-04 20:31 52.17255 20.96242 336 ft 17 kts 359°
2026-05-04 20:31 52.17364 20.96251 338 ft 10 kts 17°
2026-05-04 20:32 52.17380 20.96265 335 ft 0 kts 32°
2026-05-04 20:32 52.17383 20.96268 338 ft 2 kts 36°
2026-05-04 20:32 52.17412 20.96331 335 ft 12 kts 60°
2026-05-04 20:33 52.17455 20.96463 336 ft 13 kts 63°
2026-05-04 20:33 52.17507 20.96579 338 ft 13 kts 51°
2026-05-04 20:33 52.17554 20.96701 335 ft 12 kts 59°
2026-05-04 20:33 52.17599 20.96820 336 ft 12 kts 58°
2026-05-04 20:34 52.17624 20.96912 336 ft 8 kts 90°
2026-05-04 20:34 52.17588 20.96978 338 ft 8 kts 152°
2026-05-04 20:34 52.17539 20.97020 334 ft 8 kts 152°
2026-05-04 20:34 52.17492 20.97061 336 ft 8 kts 152°
2026-05-04 20:35 52.17445 20.97091 335 ft 7 kts 189°
2026-05-04 20:35 52.17418 20.97045 337 ft 1 kts 242°
2026-05-04 20:35 52.17414 20.97032 336 ft 2 kts 242°
2026-05-04 20:35 52.17410 20.97022 336 ft 0 kts 242°